This demonstration page uses our WeatherBlox Daily Observations layout. Learn more.

Left ArrowRight Arrow

Hourly Observations for October 10, 2016

Temp ( °F °C ) Dew Point ( °F °C ) Humidity (%) Winds ( mph kmh ) Pressure ( in mb ) Visibility ( mi km ) Precip ( " mm )
12:54 am 00:54 Mostly Clear 55 12.8 45 7.2 69 69 S 5 7 30.15 1021 10 16.0934 0 0
1:54 am 01:54 Partly Cloudy 55 12.8 46 7.8 72 72 S 7 11 30.14 1021 10 16.0934 0 0
2:54 am 02:54 Clear 59 15 47 8.3 64 64 S 12 19 30.12 1020 10 16.0934 0 0
3:54 am 03:54 Clear 59 15 47 8.3 64 64 S 10 17 30.11 1020 10 16.0934 0 0
4:54 am 04:54 Clear 59 15 46 7.8 62 62 S 12 19 30.1 1019 10 16.0934 0 0
5:54 am 05:54 Cloudy 61 16.1 46 7.8 58 58 S 14 22 30.1 1019 10 16.0934 0 0
6:54 am 06:54 Cloudy 61 16.1 46 7.8 58 58 S 17 28 30.1 1019 10 16.0934 0 0
7:54 am 07:54 Cloudy 60 15.6 49 9.4 67 67 S 20 31 30.1 1019 10 16.0934 0 0
8:54 am 08:54 Cloudy with Light Rain 56 13.3 51 10.6 84 84 S 21 33 30.11 1020 10 16.0934 0.03 0.762
9:54 am 09:54 Cloudy with Light Rain 55 12.8 50 10 83 83 S 21 33 30.11 1020 8 12.87472 0 0.0254
10:54 am 10:54 Partly Cloudy 55 12.8 52 11.1 90 90 S 18 30 30.11 1020 10 16.0934 0.02 0.508
11:10 am 11:10 Mostly Cloudy with Light Rain 55 13 52 11 88 88 S 15 24 30.12 1020 8 12.87472 0 0
11:46 am 11:46 Cloudy with Light Rain 57 14 54 12 88 88 S 15 24 30.12 1020 9 14.48406 0 0
11:54 am 11:54 Cloudy with Light Rain 58 14.4 54 12.2 87 87 S 17 28 30.1 1019 10 16.0934 0.02 0.508
12:06 pm 12:06 Cloudy 59 15 53 11.7 81 81 S 18 30 30.12 1020 10 16.0934 0 0.0254
12:29 pm 12:29 Cloudy 59 15 53 11.7 81 81 S 15 24 30.12 1020 10 16.0934 0 0.0254
12:54 pm 12:54 Cloudy 60 15.6 52 11.1 75 75 SSW 16 26 30.09 1019 10 16.0934 0 0.0254
1:42 pm 13:42 Cloudy 59 15 52 11 77 77 S 18 30 30.09 1019 10 16.0934 0 0
1:54 pm 13:54 Cloudy 59 15 51 10.6 75 75 S 20 31 30.07 1018 10 16.0934 0 0
2:54 pm 14:54 Mostly Cloudy 61 16.1 49 9.4 65 65 S 18 30 30.04 1017 10 16.0934 0 0
3:54 pm 15:54 Mostly Cloudy 60 15.6 49 9.4 67 67 S 14 22 30.03 1017 10 16.0934 0 0
4:54 pm 16:54 Cloudy with Light Rain 57 13.9 51 10.6 81 81 SSE 10 17 30.03 1017 7 11.26538 0 0.0254
5:54 pm 17:54 Partly Cloudy 57 13.9 53 11.7 87 87 SSE 12 19 30.01 1016 10 16.0934 0.01 0.254
6:54 pm 18:54 Clear 57 13.9 53 11.7 87 87 S 9 15 29.99 1016 10 16.0934 0 0
7:54 pm 19:54 Clear 57 13.9 54 12.2 90 90 SSE 9 15 29.99 1016 10 16.0934 0 0
8:54 pm 20:54 Clear 58 14.4 53 11.7 84 84 S 10 17 29.99 1016 10 16.0934 0 0
9:54 pm 21:54 Clear 57 13.9 52 11.1 83 83 S 10 17 30 1016 10 16.0934 0 0
10:54 pm 22:54 Clear 55 12.8 51 10.6 87 87 S 9 15 30 1016 10 16.0934 0 0
11:54 pm 23:54 Clear 55 12.8 51 10.6 87 87 S 8 13 29.98 1015 10 16.0934 0 0

Powered by AerisWeather